| time (UTC) | temp C | wind direction | speed KPH | gust KPH | rain 1hr cm | rain 24hr cm | rain mn cm | humidity % | barometer mb |
| 20260510184030 | 8 | 0.0 | 0.0 | 0.10 | 0.66 | 0.66 | 99 | 1010.3 | |
| 20260510183023 | 8 | 0.0 | 0.0 | 0.10 | 0.66 | 0.66 | 99 | 1010.4 | |
| 20260510182016 | 7 | 0.0 | 0.0 | 0.10 | 0.66 | 0.66 | 99 | 1010.7 | |
| 20260510181121 | 8 | 0.0 | 0.0 | 0.05 | 0.61 | 0.61 | 99 | 1010.9 | |
| 20260510180121 | 8 | 0.0 | 0.0 | 0.00 | 0.56 | 0.56 | 90 | 1010.5 | |
| 20260510175114 | 8 | 0.0 | 0.0 | 0.00 | 0.56 | 0.56 | 93 | 1010.4 | |
| 20260510174107 | 9 | 0.0 | 0.0 | 0.00 | 0.56 | 0.56 | 95 | 1010.4 | |
| 20260510173100 | 10 | 0.0 | 0.0 | 0.00 | 0.56 | 0.56 | 92 | 1010.1 | |
| 20260510172053 | 10 | 0.0 | 0.0 | 0.05 | 0.56 | 0.56 | 95 | 1009.9 | |
| 20260510171046 | 10 | 0.0 | 0.0 | 0.05 | 0.56 | 0.56 | 95 | 1009.7 | |
| 20260510170042 | 10 | 0.0 | 0.0 | 0.05 | 0.56 | 0.56 | 99 | 1009.6 | |
| 20260510165032 | 10 | 0.0 | 0.0 | 0.10 | 0.56 | 0.56 | 99 | 1009.8 | |
| 20260510164025 | 10 | 0.0 | 0.0 | 0.15 | 0.56 | 0.56 | 99 | 1009.9 | |
| 20260510163020 | 8 | 0.0 | 0.0 | 0.15 | 0.56 | 0.56 | 90 | 1010.1 | |
| 20260510162116 | 8 | 0.0 | 0.0 | 0.10 | 0.51 | 0.51 | 85 | 1010.6 | |
| 20260510161110 | 10 | 0.0 | 0.0 | 0.10 | 0.51 | 0.51 | 88 | 1010.1 | |
| 20260510155100 | 10 | 0.0 | 0.0 | 0.10 | 0.84 | 0.51 | 78 | 1009.7 | |
| 20260510154156 | 11 | 0.0 | 0.0 | 0.05 | 0.79 | 0.46 | 70 | 1009.9 | |
| 20260510153255 | 11 | 225 | 1.6 | 8.0 | 0.00 | 0.76 | 0.41 | 64 | 1009.7 |
| 20260510152249 | 13 | 248 | 0.0 | 3.2 | 0.00 | 0.76 | 0.41 | 63 | 1009.7 |
| 20260510151241 | 15 | 248 | 0.0 | 0.0 | 0.00 | 0.76 | 0.41 | 71 | 1009.6 |
| 20260510150233 | 15 | 248 | 0.0 | 0.0 | 0.00 | 0.76 | 0.41 | 84 | 1009.6 |
| 20260510145226 | 11 | 248 | 0.0 | 11.3 | 0.00 | 0.76 | 0.41 | 77 | 1010.1 |
| 20260510144220 | 11 | 248 | 0.0 | 6.4 | 0.00 | 0.76 | 0.41 | 75 | 1010.3 |
| 20260510143213 | 12 | 270 | 0.0 | 0.0 | 0.00 | 0.76 | 0.41 | 85 | 1010.3 |
| 20260510142206 | 13 | 293 | 0.0 | 6.4 | 0.00 | 0.76 | 0.41 | 92 | 1010.3 |
| 20260510141200 | 12 | 338 | 1.6 | 14.5 | 0.00 | 0.76 | 0.41 | 83 | 1010.6 |
| 20260510140153 | 10 | 293 | 1.6 | 12.9 | 0.00 | 0.76 | 0.41 | 89 | 1010.8 |
| 20260510135145 | 12 | 270 | 0.0 | 11.3 | 0.00 | 0.76 | 0.41 | 99 | 1010.7 |
| 20260510134140 | 10 | 270 | 0.0 | 3.2 | 0.00 | 0.76 | 0.41 | 88 | 1010.9 |
| 20260510133132 | 10 | 293 | 1.6 | 11.3 | 0.00 | 0.76 | 0.41 | 84 | 1011.2 |
| 20260510132125 | 10 | 315 | 8.0 | 17.7 | 0.20 | 0.76 | 0.41 | 84 | 1010.9 |
| 20260510131120 | 10 | 270 | 0.0 | 19.3 | 0.20 | 0.76 | 0.41 | 80 | 1010.6 |
| 20260510130110 | 10 | 293 | 4.8 | 17.7 | 0.20 | 0.76 | 0.41 | 93 | 1010.6 |
| 20260510125102 | 12 | 270 | 1.6 | 22.5 | 0.20 | 0.76 | 0.41 | 99 | 1010.5 |
| 20260510124054 | 12 | 270 | 0.0 | 12.9 | 0.20 | 0.76 | 0.41 | 99 | 1010.5 |
| 20260510123047 | 8 | 270 | 1.6 | 12.9 | 0.20 | 0.76 | 0.41 | 97 | 1011.0 |
| 20260510122145 | 8 | 293 | 4.8 | 37.0 | 0.10 | 0.66 | 0.30 | 82 | 1011.4 |
| 20260510121244 | 9 | 225 | 12.9 | 59.5 | 0.00 | 0.56 | 0.20 | 75 | 1010.9 |
| 20260510120240 | 10 | 0.0 | 0.0 | 0.00 | 0.56 | 0.20 | 72 | 1010.2 | |
| 20260510115231 | 11 | 0.0 | 0.0 | 0.00 | 0.56 | 0.20 | 65 | 1010.0 | |
| 20260510114225 | 12 | 0.0 | 0.0 | 0.00 | 0.56 | 0.20 | 66 | 1010.1 | |
| 20260510113218 | 12 | 0.0 | 0.0 | 0.00 | 0.56 | 0.20 | 61 | 1010.0 | |
| 20260510112212 | 13 | 0.0 | 0.0 | 0.00 | 0.56 | 0.20 | 59 | 1010.0 | |
| 20260510111205 | 13 | 0.0 | 0.0 | 0.00 | 0.56 | 0.20 | 55 | 1010.1 | |
| 20260510110200 | 13 | 0.0 | 0.0 | 0.00 | 0.56 | 0.20 | 55 | 1010.2 | |
| 20260510105152 | 16 | 0.0 | 0.0 | 0.00 | 0.56 | 0.20 | 56 | 1010.2 | |
| 20260510104145 | 15 | 0.0 | 0.0 | 0.00 | 0.56 | 0.20 | 58 | 1010.3 | |
| 20260510103140 | 13 | 0.0 | 0.0 | 0.00 | 0.56 | 0.20 | 57 | 1010.7 | |
| 20260510102133 | 13 | 0.0 | 0.0 | 0.00 | 0.56 | 0.20 | 54 | 1010.6 | |
| 20260510101127 | 14 | 0.0 | 0.0 | 0.00 | 0.56 | 0.20 | 53 | 1010.5 | |
| 20260510100120 | 16 | 0.0 | 0.0 | 0.00 | 0.56 | 0.20 | 57 | 1010.3 | |
| 20260510095112 | 15 | 0.0 | 0.0 | 0.00 | 0.56 | 0.20 | 64 | 1010.6 | |
| 20260510094103 | 15 | 0.0 | 0.0 | 0.00 | 0.56 | 0.20 | 68 | 1010.7 | |
| 20260510093055 | 12 | 0.0 | 0.0 | 0.00 | 0.56 | 0.20 | 71 | 1010.9 | |
| 20260510092048 | 13 | 0.0 | 0.0 | 0.00 | 0.56 | 0.20 | 73 | 1010.8 | |
| 20260510091041 | 11 | 0.0 | 0.0 | 0.00 | 0.56 | 0.20 | 80 | 1010.9 | |
| 20260510090034 | 12 | 0.0 | 0.0 | 0.00 | 0.56 | 0.20 | 77 | 1010.9 | |
| 20260510085028 | 11 | 0.0 | 0.0 | 0.00 | 0.56 | 0.20 | 81 | 1011.1 | |
| 20260510084020 | 11 | 0.0 | 0.0 | 0.00 | 0.56 | 0.20 | 82 | 1011.0 | |
| 20260510083014 | 11 | 0.0 | 0.0 | 0.00 | 0.56 | 0.20 | 87 | 1011.3 | |
| 20260510082008 | 10 | 0.0 | 0.0 | 0.00 | 0.56 | 0.20 | 96 | 1011.3 | |
| 20260510081000 | 11 | 0.0 | 0.0 | 0.00 | 0.56 | 0.20 | 99 | 1011.3 | |
| 20260510075951 | 10 | 0.0 | 0.0 | 0.00 | 0.56 | 0.20 | 99 | 1011.4 | |
| 20260510074944 | 9 | 0.0 | 0.0 | 0.00 | 0.56 | 0.20 | 99 | 1011.4 | |
| 20260510073940 | 9 | 0.0 | 0.0 | 0.00 | 0.56 | 0.20 | 99 | 1011.5 | |
| 20260510072929 | 8 | 0.0 | 0.0 | 0.00 | 0.56 | 0.20 | 99 | 1011.4 | |
| 20260510071922 | 8 | 0.0 | 0.0 | 0.00 | 0.56 | 0.20 | 99 | 1011.2 | |
| 20260510070913 | 8 | 0.0 | 0.0 | 0.00 | 0.56 | 0.20 | 99 | 1011.3 | |
| 20260510065906 | 8 | 0.0 | 0.0 | 0.05 | 0.56 | 0.20 | 99 | 1011.2 | |
| 20260510064900 | 8 | 0.0 | 0.0 | 0.05 | 0.56 | 0.20 | 99 | 1011.2 | |
| 20260510063852 | 8 | 0.0 | 0.0 | 0.05 | 0.56 | 0.20 | 99 | 1011.2 | |
| 20260510062844 | 8 | 0.0 | 0.0 | 0.05 | 0.56 | 0.20 | 99 | 1011.0 | |
| 20260510061840 | 7 | 0.0 | 0.0 | 0.05 | 0.56 | 0.20 | 99 | 1011.0 | |
| 20260510060831 | 7 | 0.0 | 0.0 | 0.05 | 0.56 | 0.20 | 99 | 1010.7 | |
| 20260510055931 | 7 | 0.0 | 0.0 | 0.00 | 0.51 | 0.15 | 99 | 1010.7 | |
| 20260510054924 | 7 | 270 | 1.6 | 59.5 | 0.00 | 0.51 | 0.15 | 99 | 1010.7 |
| 20260510053920 | 7 | 270 | 0.0 | 0.0 | 0.00 | 0.51 | 0.15 | 99 | 1010.7 |
| 20260510052910 | 6 | 270 | 0.0 | 0.0 | 0.00 | 0.51 | 0.15 | 99 | 1010.6 |
| 20260510051903 | 6 | 270 | 0.0 | 0.0 | 0.00 | 0.51 | 0.15 | 99 | 1010.6 |
| 20260510050900 | 6 | 270 | 0.0 | 0.0 | 0.00 | 0.51 | 0.15 | 99 | 1010.5 |
| 20260510045849 | 6 | 270 | 0.0 | 0.0 | 0.00 | 0.51 | 0.15 | 99 | 1010.7 |
| 20260510044842 | 6 | 270 | 0.0 | 0.0 | 0.00 | 0.51 | 0.15 | 99 | 1010.7 |
| 20260510043835 | 6 | 270 | 0.0 | 0.0 | 0.00 | 0.51 | 0.15 | 99 | 1010.7 |
| 20260510042828 | 6 | 270 | 0.0 | 0.0 | 0.00 | 0.51 | 0.15 | 99 | 1010.7 |
| 20260510041820 | 5 | 270 | 0.0 | 0.0 | 0.00 | 0.51 | 0.15 | 99 | 1010.7 |
| 20260510040813 | 6 | 270 | 0.0 | 0.0 | 0.00 | 0.51 | 0.15 | 99 | 1010.8 |
| 20260510035806 | 5 | 270 | 0.0 | 0.0 | 0.00 | 0.51 | 0.15 | 99 | 1010.8 |
| 20260510034800 | 5 | 270 | 0.0 | 0.0 | 0.00 | 0.51 | 0.15 | 99 | 1010.7 |
| 20260510033751 | 5 | 270 | 0.0 | 0.0 | 0.00 | 0.51 | 0.15 | 99 | 1010.8 |
| 20260510032745 | 5 | 270 | 0.0 | 0.0 | 0.00 | 0.51 | 0.15 | 99 | 1010.7 |
| 20260510031825 | 5 | 270 | 0.0 | 0.0 | 0.00 | 0.51 | 0.15 | 99 | 1010.8 |
| 20260510031740 | 5 | 270 | 0.0 | 0.0 | 0.00 | 0.51 | 0.15 | 99 | 1010.8 |
| 20260510030730 | 5 | 270 | 0.0 | 0.0 | 0.00 | 0.51 | 0.15 | 99 | 1010.8 |
| 20260510025723 | 6 | 270 | 0.0 | 0.0 | 0.00 | 0.51 | 0.15 | 99 | 1011.0 |
| 20260510024716 | 6 | 270 | 0.0 | 0.0 | 0.00 | 0.51 | 0.15 | 99 | 1011.0 |
| 20260510023723 | 6 | 270 | 0.0 | 0.0 | 0.00 | 0.51 | 0.15 | 99 | 1011.1 |
| 20260510023710 | 6 | 270 | 0.0 | 0.0 | 0.00 | 0.51 | 0.15 | 99 | 1011.0 |
| 20260510022703 | 6 | 270 | 0.0 | 0.0 | 0.00 | 0.51 | 0.15 | 99 | 1011.1 |
| 20260510021656 | 6 | 270 | 0.0 | 0.0 | 0.00 | 0.51 | 0.15 | 99 | 1011.0 |
| 20260510020649 | 6 | 270 | 0.0 | 0.0 | 0.00 | 0.51 | 0.15 | 99 | 1010.9 |
| 20260510015642 | 6 | 270 | 0.0 | 0.0 | 0.00 | 0.51 | 0.15 | 99 | 1010.9 |
| 20260510014635 | 6 | 270 | 0.0 | 0.0 | 0.00 | 0.51 | 0.15 | 99 | 1011.0 |
| 20260510013630 | 6 | 270 | 0.0 | 0.0 | 0.00 | 0.51 | 0.15 | 99 | 1010.9 |
| 20260510012624 | 6 | 270 | 0.0 | 0.0 | 0.00 | 0.51 | 0.15 | 99 | 1011.1 |
| 20260510011613 | 6 | 270 | 0.0 | 0.0 | 0.00 | 0.51 | 0.15 | 99 | 1011.2 |
| 20260510010606 | 6 | 270 | 0.0 | 0.0 | 0.00 | 0.51 | 0.15 | 99 | 1011.3 |
| 20260510005600 | 6 | 270 | 0.0 | 0.0 | 0.00 | 0.51 | 0.15 | 99 | 1011.3 |
| 20260510004552 | 6 | 270 | 0.0 | 0.0 | 0.00 | 0.51 | 0.15 | 99 | 1011.4 |
| 20260510003546 | 7 | 270 | 0.0 | 0.0 | 0.00 | 0.51 | 0.15 | 99 | 1011.3 |
| 20260510002540 | 7 | 270 | 0.0 | 0.0 | 0.00 | 0.51 | 0.15 | 99 | 1011.3 |
| 20260510001533 | 7 | 270 | 0.0 | 0.0 | 0.05 | 0.51 | 0.15 | 99 | 1011.2 |
| 20260510000526 | 7 | 270 | 0.0 | 0.0 | 0.10 | 0.51 | 0.15 | 99 | 1011.0 |
| 20260509235520 | 8 | 270 | 0.0 | 12.9 | 0.15 | 0.51 | 0.15 | 99 | 1011.3 |
| 20260509234512 | 8 | 270 | 1.6 | 20.9 | 0.15 | 0.51 | 0.15 | 99 | 1011.5 |
| 20260509233505 | 8 | 338 | 0.0 | 0.0 | 0.15 | 0.51 | 0.15 | 99 | 1011.6 |
| 20260509232502 | 8 | 338 | 0.0 | 0.0 | 0.15 | 0.51 | 0.15 | 99 | 1011.4 |
| 20260509231600 | 8 | 338 | 0.0 | 6.4 | 0.10 | 0.46 | 0.10 | 99 | 1011.4 |
| 20260509230551 | 8 | 338 | 3.2 | 14.5 | 0.10 | 0.46 | 0.10 | 99 | 1011.3 |
| 20260509225651 | 8 | 0.0 | 0.0 | 0.05 | 0.41 | 0.05 | 99 | 1011.5 | |
| 20260509224750 | 8 | 0.0 | 0.0 | 0.00 | 0.36 | 0.00 | 99 | 1011.1 | |
| 20260509223743 | 8 | 0.0 | 0.0 | 0.00 | 0.36 | 0.00 | 99 | 1011.0 | |
| 20260509222740 | 8 | 0.0 | 0.0 | 0.00 | 0.36 | 0.00 | 99 | 1011.1 | |
| 20260509221732 | 8 | 0.0 | 0.0 | 0.00 | 0.36 | 0.00 | 99 | 1011.1 | |
| 20260509220722 | 8 | 0.0 | 0.0 | 0.00 | 0.36 | 0.00 | 99 | 1011.1 | |
| 20260509215715 | 8 | 0.0 | 0.0 | 0.00 | 0.36 | 0.36 | 99 | 1011.0 | |
| 20260509214708 | 8 | 0.0 | 0.0 | 0.00 | 0.36 | 0.36 | 99 | 1010.9 | |
| 20260509213701 | 8 | 0.0 | 0.0 | 0.00 | 0.36 | 0.36 | 99 | 1010.9 | |
| 20260509212655 | 9 | 0.0 | 0.0 | 0.00 | 0.36 | 0.36 | 99 | 1011.0 | |
| 20260509211649 | 9 | 0.0 | 0.0 | 0.00 | 0.36 | 0.36 | 99 | 1011.0 | |
| 20260509210642 | 9 | 0.0 | 0.0 | 0.00 | 0.36 | 0.36 | 99 | 1010.9 | |
| 20260509205635 | 9 | 0.0 | 0.0 | 0.00 | 0.36 | 0.36 | 99 | 1010.9 | |
| 20260509204628 | 9 | 0.0 | 0.0 | 0.00 | 0.36 | 0.36 | 99 | 1010.8 | |
| 20260509203622 | 9 | 0.0 | 0.0 | 0.00 | 0.36 | 0.36 | 99 | 1010.8 | |
| 20260509202614 | 10 | 0.0 | 0.0 | 0.00 | 0.36 | 0.36 | 99 | 1010.8 | |
| 20260509201607 | 10 | 0.0 | 0.0 | 0.00 | 0.36 | 0.36 | 99 | 1010.7 | |
| 20260509200600 | 10 | 0.0 | 0.0 | 0.00 | 0.36 | 0.36 | 99 | 1010.6 | |
| 20260509195553 | 10 | 0.0 | 0.0 | 0.00 | 0.36 | 0.36 | 99 | 1010.5 | |
| 20260509194546 | 10 | 0.0 | 0.0 | 0.00 | 0.36 | 0.36 | 99 | 1010.3 | |
| 20260509193540 | 10 | 0.0 | 0.0 | 0.00 | 0.36 | 0.36 | 99 | 1010.4 | |
| 20260509192533 | 10 | 0.0 | 0.0 | 0.00 | 0.36 | 0.36 | 99 | 1010.4 | |
| 20260509191527 | 10 | 0.0 | 0.0 | 0.00 | 0.36 | 0.36 | 99 | 1010.1 | |
| 20260509190520 | 10 | 338 | 0.0 | 0.0 | 0.00 | 0.36 | 0.36 | 99 | 1010.1 |
| 20260509185513 | 10 | 0.0 | 0.0 | 0.00 | 0.36 | 0.36 | 99 | 1010.2 | |
| 20260509184506 | 10 | 0.0 | 0.0 | 0.00 | 0.36 | 0.36 | 99 | 1009.9 |